Weather History for Galveston, TX

Change the Weather History Date:

Saturday, December 22, 2012

  Actual Average Record
Temperature  
Mean Temperature 56 °F 56 °F  
Max Temperature 68 °F 63 °F 74 °F (2007)
Min Temperature 44 °F 50 °F 19 °F (1989)
Degree Days  
Heating Degree Days 9 9  
Month to date heating degree days 83 173  
Since 1 July heating degree days 166 276  
Cooling Degree Days 0 0  
Month to date cooling degree days 67 14  
Year to date cooling degree days 3931 3303  
Growing Degree Days 6 (Base 50)    
Moisture  
Dew Point 48 °F    
Average Humidity 73    
Maximum Humidity 90    
Minimum Humidity 55    
Precipitation  
Precipitation 0.00 in 0.11 in 3.81 in (1875)
Month to date precipitation 2.27 2.62  
Year to date precipitation 46.61 49.86  
Snow  
Snow 0.00 in - T in (1929)
Month to date snowfall 0.0  
Since 1 July snowfall 0.0  
Snow Depth 0.00 in    
Sea Level Pressure  
Sea Level Pressure 30.30 in    
Wind  
Wind Speed 6 mph (SE)    
Max Wind Speed 14 mph    
Max Gust Speed 17 mph    
Visibility 10 miles    
Events      
T = Trace of Precipitation, MM = Missing Value Source: NWS Daily Summary

Daily Weather History Graph

Daily Weather History Graph

Search for Another Location

Airport:

Trip Planner

Search our weather history database for the weather conditions in past years. The results will help you decide how hot, cold, wet, or windy it might be!

Date:

Astronomy

Dec. 22, 2012 Rise Set
Actual Time 7:10 AM CST 5:26 PM CST
Civil Twilight 6:44 AM CST 5:52 PM CST
Nautical Twilight 6:14 AM CST 6:22 PM CST
Astronomical Twilight 5:45 AM CST 6:51 PM CST
Moon 1:32 PM CST 2:10 AM CST
Length of Visible Light 11h 08m
Length of Day
10h 16m
Waxing Gibbous, 74% of the Moon is Illuminated
Dec 22
Waxing Gibbous
Dec 28
Full
Jan 4
Last Quarter
Jan 11
New
Jan 18
First Quarter

Hourly Weather History & Observations

Time (CST) Temp. Windchill Dew Point Humidity Pressure Visibility Wind Dir Wind Speed Gust Speed Precip Events Conditions
12:52 AM 48.9 °F - 37.0 °F 64% 30.40 in 10.0 mi WNW 4.6 mph - N/A   Clear
1:52 AM 46.0 °F - 36.0 °F 68% 30.40 in 10.0 mi Calm Calm - N/A   Clear
2:52 AM 46.4 °F - 35.6 °F 66% 30.39 in 10.0 mi Calm Calm - N/A   Clear
3:52 AM 48.0 °F - 35.1 °F 61% 30.38 in 10.0 mi West 3.5 mph - N/A   Clear
4:52 AM 46.9 °F - 34.0 °F 61% 30.37 in 10.0 mi Calm Calm - N/A   Clear
5:52 AM 46.0 °F - 36.0 °F 68% 30.36 in 10.0 mi Calm Calm - N/A   Clear
6:52 AM 45.0 °F 42.6 °F 34.0 °F 65% 30.37 in 10.0 mi NE 4.6 mph - N/A   Clear
7:52 AM 50.0 °F - 37.0 °F 61% 30.39 in 10.0 mi East 4.6 mph - N/A   Clear
8:52 AM 57.0 °F - 45.0 °F 64% 30.40 in 10.0 mi Calm Calm - N/A   Clear
9:52 AM 61.0 °F - 45.0 °F 56% 30.39 in 10.0 mi ESE 6.9 mph - N/A   Clear
10:52 AM 62.1 °F - 46.9 °F 58% 30.38 in 10.0 mi ESE 6.9 mph - N/A   Clear
11:52 AM 64.0 °F - 50.0 °F 60% 30.34 in 10.0 mi East 8.1 mph - N/A   Clear
12:52 PM 66.9 °F - 51.1 °F 57% 30.31 in 10.0 mi SSE 12.7 mph - N/A   Clear
1:52 PM 64.9 °F - 51.1 °F 61% 30.28 in 10.0 mi SE 10.4 mph - N/A   Clear
2:52 PM 66.9 °F - 54.0 °F 63% 30.25 in 10.0 mi SE 11.5 mph - N/A   Clear
3:52 PM 66.0 °F - 55.0 °F 68% 30.24 in 10.0 mi SE 9.2 mph - N/A   Clear
4:52 PM 64.9 °F - 57.0 °F 75% 30.23 in 10.0 mi SSE 8.1 mph - N/A   Scattered Clouds
5:52 PM 61.0 °F - 57.0 °F 87% 30.21 in 10.0 mi SE 5.8 mph - N/A   Clear
6:52 PM 60.1 °F - 55.9 °F 86% 30.21 in 10.0 mi SSE 6.9 mph - N/A   Clear
7:52 PM 63.0 °F - 57.9 °F 84% 30.22 in 10.0 mi SSE 5.8 mph - N/A   Clear
8:52 PM 63.0 °F - 57.9 °F 84% 30.19 in 10.0 mi SSE 11.5 mph - N/A   Clear
9:52 PM 64.9 °F - 57.9 °F 78% 30.17 in 10.0 mi SSE 10.4 mph - N/A   Overcast
10:52 PM 64.9 °F - 60.1 °F 84% 30.17 in 10.0 mi SSE 10.4 mph - N/A   Overcast
11:52 PM 64.9 °F - 60.1 °F 84% 30.15 in 10.0 mi South 11.5 mph - N/A   Overcast